Weather History for Clinton, IA

Change the Weather History Date:

Sunday, February 17, 2013

  Actual Average Record
Temperature  
Mean Temperature 22 °F -  
Max Temperature 35 °F 34 °F 63 °F (1981)
Min Temperature 10 °F 17 °F -15 °F (1958)
Degree Days  
Heating Degree Days 42    
Moisture  
Dew Point 12 °F    
Average Humidity 63    
Maximum Humidity 79    
Minimum Humidity 47    
Precipitation  
Precipitation 0.00 in - - ()
Sea Level Pressure  
Sea Level Pressure 30.09 in    
Wind  
Wind Speed 10 mph (SE)    
Max Wind Speed 21 mph    
Max Gust Speed 24 mph    
Visibility 10 miles    
Events      
Averages and records for this station are not official NWS values.
T = Trace of Precipitation, MM = Missing Value Source: NWS Daily Summary

Daily Weather History Graph

Daily Weather History Graph

Search for Another Location

Airport:

Trip Planner

Search our weather history database for the weather conditions in past years. The results will help you decide how hot, cold, wet, or windy it might be!

Date:

Astronomy

Feb. 17, 2013 Rise Set
Actual Time 6:53 AM CST 5:37 PM CST
Civil Twilight 6:25 AM CST 6:05 PM CST
Nautical Twilight 5:52 AM CST 6:38 PM CST
Astronomical Twilight 5:20 AM CST 7:10 PM CST
Moon 10:39 AM CST (2/17) 12:40 AM CST (2/17)
Length of Visible Light 11h 40m
Length of Day
10h 43m
Waxing Crescent, 49% of the Moon is Illuminated
Feb 17
Waxing Crescent
Feb 17
First Quarter
Feb 25
Full
Mar 4
Last Quarter
Mar 11
New

Hourly Weather History & Observations

Time (CST) Temp. Windchill Dew Point Humidity Pressure Visibility Wind Dir Wind Speed Gust Speed Precip Events Conditions
12:15 AM 10.4 °F 0.8 °F 5.0 °F 79% 30.19 in 10.0 mi ESE 5.8 mph - N/A   Clear
12:35 AM 10.4 °F 0.8 °F 3.2 °F 73% 30.18 in 10.0 mi East 5.8 mph - N/A   Clear
12:55 AM 10.4 °F 0.8 °F 3.2 °F 73% 30.19 in 10.0 mi East 5.8 mph - N/A   Clear
1:15 AM 10.4 °F 0.8 °F 3.2 °F 73% 30.19 in 10.0 mi SE 5.8 mph - N/A   Clear
1:35 AM 12.2 °F 2.9 °F 5.0 °F 73% 30.19 in 10.0 mi SE 5.8 mph - N/A   Clear
1:55 AM 12.2 °F 2.9 °F 3.2 °F 67% 30.19 in 10.0 mi SE 5.8 mph - N/A   Clear
2:15 AM 12.2 °F 2.9 °F 1.4 °F 62% 30.19 in 10.0 mi SSE 5.8 mph - N/A   Clear
2:35 AM 12.2 °F 4.3 °F 3.2 °F 67% 30.18 in 10.0 mi SSE 4.6 mph - N/A   Clear
2:55 AM 10.4 °F -0.4 °F 5.0 °F 79% 30.18 in 10.0 mi SE 6.9 mph - N/A   Clear
3:15 AM 10.4 °F 0.8 °F 3.2 °F 73% 30.19 in 10.0 mi SSE 5.8 mph - N/A   Clear
3:35 AM 12.2 °F 4.3 °F 5.0 °F 73% 30.19 in 10.0 mi SSE 4.6 mph - N/A   Clear
3:55 AM 10.4 °F 0.8 °F 5.0 °F 79% 30.19 in 10.0 mi SE 5.8 mph - N/A   Clear
4:15 AM 10.4 °F 0.8 °F 3.2 °F 73% 30.19 in 10.0 mi SSE 5.8 mph - N/A   Clear
4:35 AM 12.2 °F 4.3 °F 5.0 °F 73% 30.19 in 10.0 mi SSE 4.6 mph - N/A   Clear
4:55 AM 10.4 °F 2.2 °F 5.0 °F 79% 30.20 in 10.0 mi SE 4.6 mph - N/A   Scattered Clouds
5:15 AM 10.4 °F 2.2 °F 5.0 °F 79% 30.20 in 10.0 mi SE 4.6 mph - N/A   Scattered Clouds
5:35 AM 10.4 °F 2.2 °F 3.2 °F 73% 30.20 in 10.0 mi SE 4.6 mph - N/A   Partly Cloudy
5:55 AM 12.2 °F 4.3 °F 5.0 °F 73% 30.20 in 10.0 mi SSE 4.6 mph - N/A   Partly Cloudy
6:15 AM 10.4 °F 0.8 °F 5.0 °F 79% 30.20 in 10.0 mi SSE 5.8 mph - N/A   Clear
6:35 AM 12.2 °F 2.9 °F 5.0 °F 73% 30.19 in 10.0 mi SSE 5.8 mph - N/A   Clear
6:55 AM 12.2 °F 2.9 °F 6.8 °F 79% 30.19 in 10.0 mi SSE 5.8 mph - N/A   Clear
7:15 AM 12.2 °F 2.9 °F 6.8 °F 79% 30.19 in 10.0 mi SSE 5.8 mph - N/A   Clear
7:35 AM 12.2 °F 1.7 °F 6.8 °F 79% 30.19 in 10.0 mi SSE 6.9 mph - N/A   Clear
7:55 AM 14.0 °F 2.0 °F 6.8 °F 73% 30.19 in 10.0 mi SSE 9.2 mph - N/A   Clear
8:15 AM 15.8 °F 4.2 °F 6.8 °F 68% 30.19 in 10.0 mi SSE 9.2 mph - N/A   Clear
8:35 AM 15.8 °F 4.2 °F 8.6 °F 73% 30.19 in 10.0 mi SSE 9.2 mph - N/A   Clear
8:55 AM 17.6 °F 4.3 °F 8.6 °F 68% 30.19 in 10.0 mi SSE 12.7 mph - N/A   Clear
9:15 AM 19.4 °F 7.2 °F 8.6 °F 63% 30.18 in 10.0 mi SSE 11.5 mph - N/A   Clear
9:35 AM 19.4 °F 6.6 °F 8.6 °F 63% 30.18 in 10.0 mi SSE 12.7 mph - N/A   Clear
9:55 AM 21.2 °F 9.5 °F 10.4 °F 63% 30.19 in 10.0 mi SSE 11.5 mph - N/A   Clear
10:15 AM 21.2 °F 8.9 °F 10.4 °F 63% 30.19 in 10.0 mi South 12.7 mph - N/A   Clear
10:35 AM 24.8 °F 13.4 °F 10.4 °F 54% 30.19 in 10.0 mi SSE 12.7 mph 16.1 mph N/A   Clear
10:55 AM 24.8 °F 13.4 °F 10.4 °F 54% 30.19 in 10.0 mi SSE 12.7 mph - N/A   Clear
11:15 AM 26.6 °F 16.2 °F 10.4 °F 51% 30.18 in 10.0 mi SSE 11.5 mph - N/A   Clear
11:35 AM 26.6 °F 15.7 °F 12.2 °F 55% 30.17 in 10.0 mi SSE 12.7 mph - N/A   Clear
11:55 AM 28.4 °F 17.0 °F 12.2 °F 51% 30.15 in 10.0 mi SE 15.0 mph - N/A   Clear
12:15 PM 28.4 °F 16.6 °F 12.2 °F 51% 30.14 in 10.0 mi SSE 16.1 mph 19.6 mph N/A   Clear
12:35 PM 30.2 °F 20.2 °F 12.2 °F 47% 30.14 in 10.0 mi SSE 12.7 mph 19.6 mph N/A   Clear
12:55 PM 30.2 °F 19.3 °F 14.0 °F 51% 30.12 in 10.0 mi SE 15.0 mph - N/A   Clear
1:15 PM 30.2 °F 19.8 °F 15.8 °F 55% 30.12 in 10.0 mi SSE 13.8 mph 18.4 mph N/A   Clear
1:35 PM 32.0 °F 21.6 °F 15.8 °F 51% 30.10 in 10.0 mi SE 15.0 mph 20.7 mph N/A   Clear
1:55 PM 33.8 °F 23.9 °F 15.8 °F 48% 30.09 in 10.0 mi SE 15.0 mph - N/A   Clear
2:15 PM 33.8 °F 24.3 °F 15.8 °F 48% 30.07 in 10.0 mi SSE 13.8 mph 20.7 mph N/A   Clear
2:35 PM 33.8 °F 22.8 °F 15.8 °F 48% 30.06 in 10.0 mi SE 18.4 mph 21.9 mph N/A   Clear
2:55 PM 33.8 °F 22.8 °F 17.6 °F 52% 30.05 in 10.0 mi SE 18.4 mph 21.9 mph N/A   Clear
3:15 PM 33.8 °F 22.8 °F 17.6 °F 52% 30.05 in 10.0 mi SE 18.4 mph - N/A   Clear
3:35 PM 33.8 °F 23.5 °F 17.6 °F 52% 30.04 in 10.0 mi SSE 16.1 mph - N/A   Clear
3:55 PM 35.6 °F 25.5 °F 17.6 °F 48% 30.03 in 10.0 mi SE 17.3 mph - N/A   Clear
4:15 PM 35.6 °F 25.9 °F 17.6 °F 48% 30.03 in 10.0 mi SSE 16.1 mph - N/A   Clear
4:35 PM 33.8 °F 23.5 °F 17.6 °F 52% 30.02 in 10.0 mi SSE 16.1 mph 24.2 mph N/A   Clear
4:55 PM 33.8 °F 23.5 °F 17.6 °F 52% 30.01 in 10.0 mi SE 16.1 mph - N/A   Clear
5:15 PM 33.8 °F 24.3 °F 17.6 °F 52% 30.00 in 10.0 mi SE 13.8 mph 21.9 mph N/A   Clear
5:35 PM 32.0 °F 22.1 °F 17.6 °F 55% 30.00 in 10.0 mi SE 13.8 mph - N/A   Clear
5:55 PM 30.2 °F 19.3 °F 17.6 °F 60% 30.00 in 10.0 mi SE 15.0 mph - N/A   Clear
6:15 PM 30.2 °F 20.2 °F 17.6 °F 60% 30.00 in 10.0 mi SE 12.7 mph - N/A   Clear
6:35 PM 30.2 °F 18.9 °F 17.6 °F 60% 29.98 in 10.0 mi SE 16.1 mph - N/A   Clear
6:55 PM 30.2 °F 18.9 °F 17.6 °F 60% 29.98 in 10.0 mi SE 16.1 mph - N/A   Clear
7:15 PM 30.2 °F 18.9 °F 17.6 °F 60% 29.97 in 10.0 mi SE 16.1 mph 23.0 mph N/A   Clear
7:35 PM 30.2 °F 19.3 °F 17.6 °F 60% 29.97 in 10.0 mi SE 15.0 mph - N/A   Clear
7:55 PM 30.2 °F 18.5 °F 17.6 °F 60% 29.96 in 10.0 mi SE 17.3 mph - N/A   Clear
8:15 PM 30.2 °F 18.5 °F 19.4 °F 64% 29.96 in 10.0 mi SE 17.3 mph 23.0 mph N/A   Clear
8:35 PM 30.2 °F 19.3 °F 19.4 °F 64% 29.96 in 10.0 mi SE 15.0 mph 23.0 mph N/A   Clear
8:55 PM 30.2 °F 19.3 °F 19.4 °F 64% 29.96 in 10.0 mi SSE 15.0 mph - N/A   Clear
9:15 PM 30.2 °F 18.9 °F 19.4 °F 64% 29.95 in 10.0 mi SE 16.1 mph - N/A   Clear
9:35 PM 30.2 °F 18.5 °F 19.4 °F 64% 29.93 in 10.0 mi SE 17.3 mph 23.0 mph N/A   Clear
9:55 PM 30.2 °F 17.8 °F 19.4 °F 64% 29.92 in 10.0 mi SSE 19.6 mph - N/A   Clear
10:15 PM 30.2 °F 17.4 °F 19.4 °F 64% 29.91 in 10.0 mi SE 20.7 mph - N/A   Clear
10:35 PM 30.2 °F 17.8 °F 19.4 °F 64% 29.90 in 10.0 mi SE 19.6 mph - N/A   Clear
10:55 PM 30.2 °F 18.5 °F 19.4 °F 64% 29.90 in 10.0 mi SSE 17.3 mph - N/A   Clear
11:15 PM 30.2 °F 18.9 °F 19.4 °F 64% 29.89 in 10.0 mi SSE 16.1 mph - N/A   Clear
11:35 PM 30.2 °F 18.9 °F 19.4 °F 64% 29.88 in 10.0 mi SSE 16.1 mph - N/A   Clear
11:55 PM 30.2 °F 18.9 °F 19.4 °F 64% 29.87 in 10.0 mi SSE 16.1 mph - N/A   Clear